This is the latest recevied weather packets stored in our database for station/object KC8YYF. If no packets are shown the sender has not sent any weather packets the latest 10 day(s).
| Time | Temp. | Humidity | Pressure | Rain* | Wind** | Luminosity | Snow |
|---|---|---|---|---|---|---|---|
| 1777849352 | 13.89° C | 46% | 1014.6 hPa | 0 mm | - | 22 W/m² | - |
| 1777849050 | 13.89° C | 49% | 1014.7 hPa | 0 mm | - | 26 W/m² | - |
| 1777848749 | 13.89° C | 47% | 1014.9 hPa | 0 mm | - | 28 W/m² | - |
| 1777848447 | 13.89° C | 48% | 1014.6 hPa | 0 mm | - | 34 W/m² | - |
| 1777848145 | 13.89° C | 49% | 1014.9 hPa | 0 mm | - | 38 W/m² | - |
| 1777847842 | 14.44° C | 45% | 1014.8 hPa | 0 mm | - | 43 W/m² | - |
| 1777847539 | 14.44° C | 44% | 1014.8 hPa | 0 mm | - | 46 W/m² | - |
| 1777847236 | 14.44° C | 48% | 1015.1 hPa | 0 mm | - | 61 W/m² | - |
| 1777846934 | 14.44° C | 46% | 1014.9 hPa | 0 mm | - | 53 W/m² | - |
| 1777846632 | 14.44° C | 42% | 1014.9 hPa | 0 mm | - | 50 W/m² | - |
| 1777846329 | 14.44° C | 40% | 1014.8 hPa | 0 mm | - | 56 W/m² | - |
| 1777846025 | 14.44° C | 45% | 1014.8 hPa | 0 mm | - | 75 W/m² | - |
| 1777845722 | 14.44° C | 48% | 1014.9 hPa | 0 mm | - | 67 W/m² | - |
| 1777845419 | 14.44° C | 45% | 1014.8 hPa | 0 mm | - | 55 W/m² | - |
| 1777845116 | 14.44° C | 42% | 1014.8 hPa | 0 mm | - | 78 W/m² | - |
| 1777844814 | 15° C | 42% | 1015.1 hPa | 0 mm | - | 98 W/m² | - |
| 1777844509 | 14.44° C | 44% | 1014.9 hPa | 0 mm | - | 64 W/m² | - |
| 1777844204 | 15° C | 41% | 1014.8 hPa | 0 mm | - | 62 W/m² | - |
| 1777843900 | 15° C | 44% | 1015.3 hPa | 0 mm | - | 70 W/m² | - |
| 1777843597 | 15.56° C | 45% | 1015 hPa | 0 mm | - | 61 W/m² | - |
| 1777843295 | 16.11° C | 43% | 1014.9 hPa | 0 mm | - | 174 W/m² | - |
| 1777842992 | 15.56° C | 42% | 1015 hPa | 0 mm | - | 185 W/m² | - |
| 1777842687 | 15.56° C | 43% | 1014.8 hPa | 0 mm | - | 236 W/m² | - |
| 1777842384 | 15° C | 45% | 1015.1 hPa | 0 mm | - | 177 W/m² | - |
| 1777842081 | 15.56° C | 42% | 1015.1 hPa | 0 mm | - | 138 W/m² | - |
* Rain latest hour (hover to see other rain measurements)
** Current wind speed in m/s (hover to see current wind gust speed)